Location: Strawberry
(45.6646°N, 111.9596°W)
Time: 22:31:28
(UTC+00:00)

Courier 1B - Pass Details

Date: 03 October 2022
Orbit: 962 x 1209 km, 28.3° (Epoch: 29 November)

Event Time Altitude Azimuth Distance (km) Brightness Sun altitude
Rises 22:00:27 0° 228° (SW) 3,994 12.0 28.3°
Reaches altitude 10° 22:04:23 10° 210° (SSW) 2,987 11.5 27.8°
Maximum altitude 22:08:50 17° 172° (S) 2,434 10.2 27.2°
Drops below altitude 10° 22:13:08 10° 134° (SE) 2,874 10.0 26.6°
Sets 22:16:49 0° 115° (ESE) 3,779 10.3 26.1°
